| time (UTC) | temp F | wind direction | speed MPH | gust MPH | rain 1hr in | rain 24hr in | rain mn in | humidity % | barometer mb |
| 20260905154559 | 59 | 273 | 2.0 | 8.0 | 0.07 | 0.18 | 0.10 | 83 | 1010.0 |
| 20260905153106 | 59 | 327 | 2.0 | 8.0 | 0.07 | 0.18 | 0.10 | 85 | 1010.0 |
| 20260905151541 | 59 | 281 | 2.0 | 12.0 | 0.06 | 0.17 | 0.09 | 81 | 1009.8 |
| 20260905150038 | 63 | 200 | 5.0 | 17.0 | 0.01 | 0.12 | 0.04 | 72 | 1009.7 |
| 20260905144525 | 64 | 296 | 9.0 | 21.0 | 0.00 | 0.12 | 0.03 | 64 | 1009.3 |
| 20260905143116 | 65 | 240 | 6.0 | 17.0 | 0.00 | 0.12 | 0.03 | 64 | 1009.2 |
| 20260905141508 | 64 | 299 | 4.0 | 16.0 | 0.00 | 0.12 | 0.03 | 67 | 1009.1 |
| 20260905140105 | 63 | 317 | 2.0 | 10.0 | 0.00 | 0.12 | 0.03 | 76 | 1009.1 |
| 20260905134546 | 63 | 207 | 4.0 | 18.0 | 0.00 | 0.17 | 0.03 | 72 | 1009.2 |
| 20260905133038 | 65 | 311 | 5.0 | 19.0 | 0.00 | 0.17 | 0.03 | 65 | 1009.0 |
| 20260905131530 | 65 | 323 | 5.0 | 18.0 | 0.00 | 0.17 | 0.03 | 65 | 1008.8 |
| 20260905130121 | 66 | 306 | 8.0 | 20.0 | 0.00 | 0.17 | 0.03 | 64 | 1008.6 |
| 20260905124545 | 67 | 234 | 5.0 | 14.0 | 0.00 | 0.20 | 0.03 | 61 | 1008.4 |
| 20260905123143 | 66 | 227 | 6.0 | 15.0 | 0.00 | 0.20 | 0.03 | 58 | 1008.2 |
| 20260905121550 | 66 | 195 | 5.0 | 16.0 | 0.00 | 0.20 | 0.03 | 64 | 1007.9 |
| 20260905120139 | 65 | 281 | 5.0 | 19.0 | 0.01 | 0.20 | 0.03 | 65 | 1007.9 |
| 20260905114605 | 65 | 206 | 4.0 | 14.0 | 0.01 | 0.25 | 0.03 | 67 | 1007.8 |
| 20260905113032 | 64 | 23 | 3.0 | 12.0 | 0.01 | 0.25 | 0.03 | 68 | 1007.8 |
| 20260905111643 | 64 | 245 | 5.0 | 17.0 | 0.01 | 0.25 | 0.03 | 67 | 1007.6 |
| 20260905110038 | 64 | 232 | 5.0 | 15.0 | 0.00 | 0.24 | 0.02 | 72 | 1007.5 |
| 20260905104643 | 63 | 142 | 7.0 | 14.0 | 0.00 | 0.34 | 0.02 | 73 | 1007.5 |
| 20260905103048 | 62 | 347 | 8.0 | 16.0 | 0.00 | 0.34 | 0.02 | 74 | 1007.5 |
| 20260905101551 | 61 | 232 | 5.0 | 15.0 | 0.00 | 0.34 | 0.02 | 76 | 1007.3 |
| 20260905100153 | 61 | 279 | 6.0 | 12.0 | 0.00 | 0.34 | 0.02 | 78 | 1007.3 |
| 20260905094600 | 60 | 281 | 6.0 | 13.0 | 0.00 | 0.39 | 0.02 | 81 | 1007.3 |
| 20260905093018 | 58 | 325 | 3.0 | 10.0 | 0.00 | 0.39 | 0.02 | 84 | 1007.2 |
| 20260905091530 | 57 | 225 | 4.0 | 10.0 | 0.00 | 0.39 | 0.02 | 83 | 1007.1 |
| 20260905090028 | 59 | 223 | 5.0 | 15.0 | 0.01 | 0.39 | 0.02 | 81 | 1007.1 |
| 20260905084530 | 59 | 252 | 5.0 | 10.0 | 0.02 | 0.39 | 0.02 | 82 | 1006.9 |
| 20260905083025 | 58 | 230 | 4.0 | 14.0 | 0.02 | 0.39 | 0.02 | 85 | 1006.8 |
| 20260905081524 | 58 | 236 | 3.0 | 9.0 | 0.02 | 0.39 | 0.02 | 85 | 1006.8 |
| 20260905080022 | 60 | 281 | 4.0 | 17.0 | 0.02 | 0.39 | 0.02 | 79 | 1006.6 |
| 20260905074521 | 62 | 258 | 6.0 | 14.0 | 0.00 | 0.39 | 0.00 | 76 | 1006.4 |
| 20260905073022 | 62 | 179 | 6.0 | 16.0 | 0.00 | 0.39 | 0.00 | 79 | 1006.2 |
| 20260905071528 | 61 | 237 | 7.0 | 14.0 | 0.00 | 0.39 | 0.00 | 79 | 1006.2 |
| 20260905070009 | 60 | 213 | 4.0 | 10.0 | 0.00 | 0.39 | 0.00 | 81 | 1006.1 |
| 20260905064506 | 59 | 258 | 4.0 | 16.0 | 0.00 | 0.39 | 0.00 | 81 | 1005.8 |
| 20260905063006 | 59 | 223 | 5.0 | 10.0 | 0.00 | 0.39 | 0.00 | 81 | 1005.9 |
| 20260905061503 | 59 | 240 | 4.0 | 12.0 | 0.00 | 0.39 | 0.00 | 82 | 1005.8 |
| 20260905060100 | 59 | 251 | 4.0 | 11.0 | 0.00 | 0.39 | 0.00 | 83 | 1005.7 |
| 20260905060001 | 59 | 273 | 4.0 | 11.0 | 0.00 | 0.39 | 0.00 | 83 | 1005.7 |
| 20260905054558 | 58 | 236 | 4.0 | 9.0 | 0.00 | 0.39 | 0.00 | 84 | 1005.6 |
| 20260905053136 | 58 | 263 | 3.0 | 9.0 | 0.00 | 0.39 | 0.00 | 84 | 1005.6 |
| 20260905051554 | 58 | 236 | 7.0 | 14.0 | 0.00 | 0.39 | 0.00 | 84 | 1005.5 |
| 20260905050050 | 58 | 250 | 3.0 | 11.0 | 0.00 | 0.39 | 0.00 | 86 | 1005.3 |
| 20260905044549 | 57 | 238 | 4.0 | 8.0 | 0.00 | 0.39 | 0.00 | 87 | 1005.1 |
| 20260905043045 | 57 | 219 | 4.0 | 15.0 | 0.00 | 0.39 | 0.00 | 86 | 1005.0 |
| 20260905041545 | 57 | 232 | 4.0 | 9.0 | 0.00 | 0.39 | 0.00 | 85 | 1004.8 |
| 20260905040040 | 57 | 205 | 4.0 | 12.0 | 0.00 | 0.39 | 0.00 | 85 | 1004.8 |
| 20260905034538 | 57 | 213 | 4.0 | 12.0 | 0.00 | 0.39 | 0.00 | 84 | 1004.7 |
| 20260905033049 | 57 | 238 | 3.0 | 10.0 | 0.00 | 0.39 | 0.00 | 84 | 1004.5 |
| 20260905031535 | 57 | 270 | 3.0 | 9.0 | 0.00 | 0.39 | 0.00 | 84 | 1004.5 |
| 20260905030030 | 56 | 251 | 3.0 | 11.0 | 0.00 | 0.39 | 0.00 | 85 | 1004.3 |
| 20260905024529 | 57 | 255 | 1.0 | 6.0 | 0.00 | 0.39 | 0.00 | 85 | 1004.2 |
| 20260905023027 | 57 | 251 | 2.0 | 9.0 | 0.00 | 0.39 | 0.00 | 84 | 1004.1 |
| 20260905021526 | 57 | 219 | 2.0 | 11.0 | 0.00 | 0.39 | 0.00 | 84 | 1004.0 |
| 20260905020026 | 57 | 296 | 3.0 | 7.0 | 0.00 | 0.39 | 0.00 | 85 | 1003.8 |
| 20260905014518 | 57 | 225 | 3.0 | 10.0 | 0.00 | 0.39 | 0.00 | 85 | 1003.5 |
| 20260905013016 | 57 | 325 | 3.0 | 12.0 | 0.00 | 0.39 | 0.00 | 84 | 1003.3 |
| 20260905011515 | 58 | 306 | 3.0 | 10.0 | 0.00 | 0.39 | 0.00 | 84 | 1003.0 |
| 20260905010013 | 58 | 240 | 3.0 | 12.0 | 0.00 | 0.39 | 0.00 | 84 | 1002.9 |
| 20260905004510 | 58 | 320 | 3.0 | 9.0 | 0.00 | 0.39 | 0.00 | 85 | 1002.8 |
| 20260905003008 | 58 | 212 | 5.0 | 13.0 | 0.00 | 0.39 | 0.00 | 84 | 1002.6 |
| 20260905001505 | 58 | 219 | 4.0 | 12.0 | 0.00 | 0.39 | 0.00 | 84 | 1002.5 |
| 20260905000003 | 58 | 239 | 5.0 | 14.0 | 0.00 | 0.39 | 0.00 | 84 | 1002.4 |
| 20260904234601 | 58 | 231 | 4.0 | 10.0 | 0.00 | 0.39 | 0.00 | 85 | 1002.5 |
| 20260904233059 | 58 | 246 | 3.0 | 14.0 | 0.00 | 0.39 | 0.00 | 85 | 1002.3 |
| 20260904231557 | 58 | 223 | 3.0 | 14.0 | 0.00 | 0.39 | 0.00 | 85 | 1002.2 |
| 20260904230055 | 58 | 246 | 3.0 | 12.0 | 0.00 | 0.39 | 0.00 | 86 | 1002.3 |
| 20260904224604 | 58 | 229 | 3.0 | 12.0 | 0.00 | 0.39 | 0.00 | 86 | 1002.1 |
| 20260904223051 | 58 | 238 | 3.0 | 13.0 | 0.00 | 0.39 | 0.00 | 86 | 1002.1 |
| 20260904221551 | 58 | 277 | 5.0 | 11.0 | 0.00 | 0.39 | 0.00 | 86 | 1002.0 |
| 20260904220046 | 58 | 217 | 4.0 | 15.0 | 0.00 | 0.39 | 0.00 | 86 | 1002.1 |
| 20260904214549 | 57 | 284 | 3.0 | 12.0 | 0.00 | 0.39 | 0.39 | 86 | 1001.8 |
| 20260904213043 | 57 | 281 | 2.0 | 12.0 | 0.00 | 0.39 | 0.39 | 86 | 1001.8 |
| 20260904211543 | 57 | 247 | 3.0 | 11.0 | 0.00 | 0.39 | 0.39 | 86 | 1001.7 |
| 20260904210048 | 57 | 265 | 4.0 | 11.0 | 0.00 | 0.39 | 0.39 | 87 | 1001.6 |
| 20260904204538 | 57 | 219 | 4.0 | 11.0 | 0.00 | 0.39 | 0.39 | 86 | 1001.5 |
| 20260904203036 | 58 | 306 | 3.0 | 11.0 | 0.00 | 0.39 | 0.39 | 87 | 1001.3 |
| 20260904201542 | 58 | 213 | 5.0 | 16.0 | 0.00 | 0.39 | 0.39 | 87 | 1001.0 |
| 20260904200033 | 58 | 281 | 6.0 | 12.0 | 0.00 | 0.39 | 0.39 | 88 | 1000.9 |
| 20260904194529 | 58 | 255 | 4.0 | 15.0 | 0.00 | 0.39 | 0.39 | 87 | 1000.7 |
| 20260904193032 | 59 | 194 | 3.0 | 16.0 | 0.00 | 0.39 | 0.39 | 88 | 1000.4 |
| 20260904191529 | 59 | 237 | 3.0 | 14.0 | 0.00 | 0.39 | 0.39 | 89 | 1000.2 |
| 20260904184524 | 59 | 205 | 3.0 | 10.0 | 0.01 | 0.39 | 0.39 | 91 | 999.7 |
| 20260904183025 | 59 | 232 | 2.0 | 8.0 | 0.06 | 0.39 | 0.39 | 91 | 999.5 |
| 20260904181523 | 59 | 240 | 2.0 | 6.0 | 0.08 | 0.39 | 0.39 | 91 | 999.5 |
| 20260904180022 | 59 | 249 | 0.0 | 0.0 | 0.08 | 0.39 | 0.39 | 91 | 999.4 |
| 20260904174527 | 59 | 262 | 0.0 | 3.0 | 0.07 | 0.39 | 0.39 | 90 | 999.3 |
| 20260904173021 | 60 | 311 | 2.0 | 7.0 | 0.01 | 0.32 | 0.32 | 89 | 999.4 |
| 20260904171521 | 60 | 248 | 2.0 | 7.0 | 0.00 | 0.31 | 0.31 | 88 | 999.1 |
| 20260904170019 | 61 | 254 | 1.0 | 5.0 | 0.00 | 0.31 | 0.31 | 88 | 999.1 |
| 20260904164519 | 61 | 258 | 0.0 | 4.0 | 0.00 | 0.31 | 0.31 | 87 | 999.1 |
| 20260904163027 | 61 | 244 | 1.0 | 4.0 | 0.00 | 0.31 | 0.31 | 87 | 999.2 |
| 20260904161518 | 61 | 236 | 1.0 | 4.0 | 0.00 | 0.31 | 0.31 | 85 | 999.2 |
| 20260904160016 | 61 | 252 | 1.0 | 7.0 | 0.00 | 0.31 | 0.31 | 84 | 999.3 |